TimePST,TemperatureF,Dew PointF,Humidity,Sea Level PressureIn,VisibilityMPH,Wind Direction,Wind SpeedMPH,Gust SpeedMPH,PrecipitationIn,Events,Conditions,WindDirDegrees,DateUTC
12:34 AM,33.8,30.2,87,30.01,5.0,Calm,Calm,-,N/A,,Scattered Clouds,0,2013-02-20 08:34:00
12:53 AM,34.0,30.0,85,30.02,5.0,East,4.6,-,N/A,,Scattered Clouds,80,2013-02-20 08:53:00
1:06 AM,33.8,30.2,87,30.02,5.0,Calm,Calm,-,N/A,,Mostly Cloudy,0,2013-02-20 09:06:00
1:53 AM,35.1,30.9,85,30.03,5.0,East,3.5,-,N/A,,Overcast,100,2013-02-20 09:53:00
2:48 AM,35.6,32.0,87,30.03,5.0,ESE,4.6,-,N/A,,Overcast,110,2013-02-20 10:48:00
2:53 AM,36.0,32.0,86,30.03,5.0,East,3.5,-,N/A,,Overcast,90,2013-02-20 10:53:00
3:53 AM,37.4,33.8,87,30.02,5.0,Calm,Calm,-,N/A,,Overcast,0,2013-02-20 11:53:00
4:27 AM,37.4,33.8,87,30.02,5.0,ESE,3.5,-,N/A,,Overcast,110,2013-02-20 12:27:00
4:44 AM,37.4,33.8,87,30.01,4.0,East,5.8,-,0.00,Rain,Light Rain,100,2013-02-20 12:44:00
4:53 AM,37.0,33.1,86,30.02,5.0,East,6.9,-,0.01,Rain,Light Rain,80,2013-02-20 12:53:00
5:53 AM,37.0,33.1,86,30.02,5.0,East,3.5,-,N/A,,Overcast,90,2013-02-20 13:53:00
6:06 AM,37.4,33.8,87,30.02,5.0,Calm,Calm,-,N/A,,Overcast,0,2013-02-20 14:06:00
6:21 AM,37.4,33.8,87,30.01,5.0,Calm,Calm,-,N/A,,Overcast,0,2013-02-20 14:21:00
6:53 AM,37.0,33.1,86,30.01,5.0,East,5.8,-,N/A,,Mostly Cloudy,80,2013-02-20 14:53:00
7:26 AM,37.4,33.8,87,30.00,2.5,Calm,Calm,-,0.00,Rain,Light Rain,0,2013-02-20 15:26:00
7:35 AM,37.4,33.8,87,29.99,1.8,Calm,Calm,-,0.00,Rain,Light Rain,0,2013-02-20 15:35:00
7:43 AM,37.4,33.8,87,29.99,2.5,Calm,Calm,-,0.00,Rain,Light Rain,0,2013-02-20 15:43:00
7:50 AM,37.4,33.8,87,29.99,3.0,Calm,Calm,-,0.00,,Overcast,0,2013-02-20 15:50:00
7:53 AM,37.0,34.0,89,29.99,3.0,ENE,3.5,-,0.00,,Mostly Cloudy,70,2013-02-20 15:53:00
8:53 AM,39.9,36.0,86,30.01,4.0,Calm,Calm,-,N/A,,Mostly Cloudy,0,2013-02-20 16:53:00
9:53 AM,42.1,37.9,85,30.00,4.0,SSE,4.6,-,0.00,,Overcast,150,2013-02-20 17:53:00
10:14 AM,42.8,37.4,81,30.00,2.5,Variable,5.8,-,0.00,Rain,Light Rain,0,2013-02-20 18:14:00
10:21 AM,42.8,37.4,81,29.99,3.0,SSE,5.8,-,0.00,Rain,Light Rain,150,2013-02-20 18:21:00
10:53 AM,43.0,37.9,82,29.99,4.0,SSE,4.6,-,0.00,,Haze,160,2013-02-20 18:53:00
11:01 AM,44.6,39.2,81,29.98,4.0,Variable,5.8,-,N/A,,Haze,0,2013-02-20 19:01:00
11:18 AM,42.8,39.2,87,29.98,1.8,Variable,3.5,-,0.00,Rain,Light Rain,0,2013-02-20 19:18:00
11:32 AM,42.8,39.2,87,29.98,2.0,Variable,6.9,-,0.02,Rain,Light Rain,0,2013-02-20 19:32:00
11:43 AM,44.6,39.2,81,29.98,2.5,SE,5.8,-,0.02,Rain,Light Rain,140,2013-02-20 19:43:00
11:53 AM,44.1,39.0,82,29.98,1.8,SSE,6.9,-,0.02,Rain,Light Rain,150,2013-02-20 19:53:00
12:00 PM,44.6,39.2,81,29.97,3.0,ESE,4.6,-,0.00,Rain,Light Rain,120,2013-02-20 20:00:00
12:53 PM,45.0,39.9,82,29.96,2.5,SSE,5.8,-,0.00,Rain,Light Rain,150,2013-02-20 20:53:00
12:58 PM,44.6,39.2,81,29.95,3.0,Variable,5.8,-,0.00,Rain,Light Rain,0,2013-02-20 20:58:00
1:03 PM,44.6,39.2,81,29.95,2.5,South,3.5,-,0.00,Rain,Light Rain,180,2013-02-20 21:03:00
1:11 PM,44.6,39.2,81,29.95,1.2,Variable,4.6,-,0.01,Rain,Light Rain,0,2013-02-20 21:11:00
1:27 PM,42.8,39.2,87,29.95,1.8,SSE,6.9,-,0.04,Rain,Light Rain,150,2013-02-20 21:27:00
1:35 PM,42.8,37.4,81,29.95,1.2,Variable,4.6,-,0.04,Rain,Light Rain,0,2013-02-20 21:35:00
1:53 PM,43.0,37.9,82,29.96,1.5,Calm,Calm,-,0.09,Rain,Light Rain,0,2013-02-20 21:53:00
2:11 PM,42.8,39.2,87,29.94,2.5,ESE,4.6,-,0.02,Rain,Light Rain,120,2013-02-20 22:11:00
2:20 PM,42.8,39.2,87,29.94,3.0,ESE,6.9,-,0.02,Rain,Light Rain,120,2013-02-20 22:20:00
2:53 PM,43.0,37.9,82,29.94,2.5,East,5.8,-,0.02,Rain,Light Rain,90,2013-02-20 22:53:00
3:00 PM,42.8,37.4,81,29.94,3.0,East,4.6,-,0.00,Rain,Light Rain,90,2013-02-20 23:00:00
3:30 PM,42.8,39.2,87,29.94,2.0,SE,5.8,-,0.01,Rain,Light Rain,130,2013-02-20 23:30:00
3:45 PM,42.8,39.2,87,29.94,4.0,East,4.6,-,0.01,Rain,Light Rain,100,2013-02-20 23:45:00
3:53 PM,43.0,37.9,82,29.94,5.0,East,5.8,-,0.01,Rain,Light Rain,100,2013-02-20 23:53:00
4:19 PM,42.8,39.2,87,29.94,1.8,East,6.9,-,0.00,Rain,Light Rain,90,2013-02-21 00:19:00
4:29 PM,42.8,37.4,81,29.94,2.5,East,5.8,-,0.00,,Haze,100,2013-02-21 00:29:00
4:38 PM,42.8,37.4,81,29.95,4.0,East,4.6,-,0.00,,Haze,90,2013-02-21 00:38:00
4:53 PM,44.1,39.0,82,29.96,5.0,ENE,4.6,-,0.00,,Haze,70,2013-02-21 00:53:00
5:53 PM,43.0,37.9,82,29.97,5.0,Calm,Calm,-,N/A,,Haze,0,2013-02-21 01:53:00
6:18 PM,42.8,37.4,81,29.97,6.0,Calm,Calm,-,N/A,,Overcast,0,2013-02-21 02:18:00
6:35 PM,41.0,37.4,87,29.97,3.0,Calm,Calm,-,N/A,,Overcast,0,2013-02-21 02:35:00
6:53 PM,42.1,37.9,85,29.99,4.0,Calm,Calm,-,N/A,,Overcast,0,2013-02-21 02:53:00
6:58 PM,41.0,37.4,87,29.98,2.5,Calm,Calm,-,N/A,,Overcast,0,2013-02-21 02:58:00
7:01 PM,41.0,37.4,87,29.98,1.2,Calm,Calm,-,N/A,,Overcast,0,2013-02-21 03:01:00
7:09 PM,41.0,37.4,87,29.98,2.0,Calm,Calm,-,N/A,,Overcast,0,2013-02-21 03:09:00
7:16 PM,41.0,37.4,87,29.99,5.0,Calm,Calm,-,N/A,,Overcast,0,2013-02-21 03:16:00
7:21 PM,41.0,37.4,87,29.99,1.8,Calm,Calm,-,N/A,,Overcast,0,2013-02-21 03:21:00
7:31 PM,39.2,37.4,93,29.99,3.0,Calm,Calm,-,N/A,,Overcast,0,2013-02-21 03:31:00
7:53 PM,41.0,37.0,86,30.00,4.0,Calm,Calm,-,N/A,,Overcast,0,2013-02-21 03:53:00
8:22 PM,39.2,35.6,87,29.99,1.2,East,3.5,-,N/A,,Mostly Cloudy,100,2013-02-21 04:22:00
8:29 PM,39.2,35.6,87,29.99,0.2,ESE,3.5,-,N/A,Fog,Fog,120,2013-02-21 04:29:00
8:38 PM,39.2,35.6,87,29.99,0.2,Calm,Calm,-,N/A,Fog,Fog,0,2013-02-21 04:38:00
8:53 PM,39.0,35.1,86,30.01,1.0,Calm,Calm,-,N/A,,Mostly Cloudy,0,2013-02-21 04:53:00
8:55 PM,39.2,35.6,87,30.00,2.0,Calm,Calm,-,N/A,,Mostly Cloudy,0,2013-02-21 04:55:00
9:02 PM,39.2,35.6,87,30.00,1.2,Calm,Calm,-,N/A,,Mostly Cloudy,0,2013-02-21 05:02:00
9:11 PM,37.4,33.8,87,30.00,0.2,Calm,Calm,-,N/A,Fog,Fog,0,2013-02-21 05:11:00
9:21 PM,37.4,33.8,87,30.01,0.2,Calm,Calm,-,N/A,Fog,Fog,0,2013-02-21 05:21:00
9:53 PM,35.1,32.0,89,30.01,0.2,Calm,Calm,-,N/A,Fog,Fog,0,2013-02-21 05:53:00
10:49 PM,37.4,33.8,87,30.01,0.2,East,4.6,-,N/A,Fog,Fog,100,2013-02-21 06:49:00
10:53 PM,37.0,34.0,89,30.01,0.2,East,5.8,-,N/A,Fog,Fog,90,2013-02-21 06:53:00
11:16 PM,37.4,33.8,87,30.01,0.2,Calm,Calm,-,N/A,Fog,Fog,0,2013-02-21 07:16:00
11:53 PM,37.0,35.1,93,30.01,0.2,Calm,Calm,-,N/A,Fog,Fog,0,2013-02-21 07:53:00